This is the latest recevied weather packets stored in our database for station/object KD4EG. If no packets are shown the sender has not sent any weather packets the latest 10 day(s).
| Time | Temp. | Humidity | Pressure | Rain* | Wind** | Luminosity | Snow |
|---|---|---|---|---|---|---|---|
| 1788650219 | 30° C | 57% | 1013.8 hPa | 0 mm | - | 15 W/m² | - |
| 1788649914 | 30.56° C | 56% | 1013.8 hPa | 0 mm | - | 17 W/m² | - |
| 1788649610 | 30.56° C | 55% | 1013.9 hPa | 0 mm | - | 23 W/m² | - |
| 1788649308 | 31.67° C | 53% | 1013.7 hPa | 0 mm | - | 29 W/m² | - |
| 1788649007 | 31.67° C | 54% | 1013.8 hPa | 0 mm | - | 33 W/m² | - |
| 1788648702 | 31.67° C | 53% | 1013.8 hPa | 0 mm | - | 37 W/m² | - |
| 1788648402 | 31.67° C | 53% | 1013.6 hPa | 0 mm | - | 41 W/m² | - |
| 1788648096 | 31.67° C | 52% | 1013.7 hPa | 0 mm | - | 43 W/m² | - |
| 1788647793 | 31.67° C | 52% | 1013.8 hPa | 0 mm | - | 50 W/m² | - |
| 1788647490 | 31.67° C | 52% | 1013.6 hPa | 0 mm | - | 42 W/m² | - |
| 1788647185 | 32.22° C | 51% | 1013.6 hPa | 0 mm | - | 81 W/m² | - |
| 1788646880 | 32.22° C | 51% | 1013.6 hPa | 0 mm | - | 82 W/m² | - |
| 1788646575 | 32.22° C | 52% | 1013.6 hPa | 0 mm | - | 42 W/m² | - |
| 1788646272 | 32.22° C | 52% | 1013.6 hPa | 0 mm | - | 97 W/m² | - |
| 1788645967 | 32.22° C | 53% | 1013.5 hPa | 0 mm | - | 46 W/m² | - |
| 1788645663 | 32.22° C | 53% | 1013.6 hPa | 0 mm | - | 155 W/m² | - |
| 1788645363 | 32.22° C | 53% | 1013.5 hPa | 0 mm | - | 163 W/m² | - |
| 1788645058 | 32.22° C | 53% | 1013.5 hPa | 0 mm | - | 177 W/m² | - |
| 1788644754 | 32.22° C | 52% | 1013.3 hPa | 0 mm | - | 207 W/m² | - |
| 1788644449 | 32.22° C | 53% | 1013.5 hPa | 0 mm | - | 226 W/m² | - |
| 1788644144 | 32.22° C | 54% | 1013.4 hPa | 0 mm | - | 248 W/m² | - |
| 1788643839 | 32.78° C | 54% | 1013.2 hPa | 0 mm | - | 265 W/m² | - |
| 1788643534 | 31.67° C | 55% | 1013 hPa | 0 mm | - | 303 W/m² | - |
| 1788643234 | 31.67° C | 55% | 1012.9 hPa | 0 mm | - | 346 W/m² | - |
| 1788642953 | 31.67° C | 55% | 1013 hPa | 0 mm | - | 365 W/m² | - |
* Rain latest hour (hover to see other rain measurements)
** Current wind speed in m/s (hover to see current wind gust speed)